Location: ČR
(50.0000°N, 15.0000°E)
Time: 14:40:58
(UTC+00:00)

Explorer 7 - Pass Details

Date: 29 October 2021
Orbit: 483 x 675 km, 50.3° (Epoch: 27 November)

Event Time Altitude Azimuth Distance (km) Brightness Sun altitude
Rises 17:51:56 0° 213° (SSW) 2,575 10.6 -21.4°
Reaches altitude 10° 17:54:20 10° 200° (SSW) 1,718 9.5 -21.8°
Enters shadow 17:55:50 19° 182° (S) 1,289 8.6 -22.0°
Maximum altitude 17:57:33 25° 144° (SE) 1,081 - -22.3°
Drops below altitude 10° 18:00:56 10° 88° (E) 1,808 - -22.8°
Sets 18:03:30 0° 75° (ENE) 2,742 - -23.2°
